| time (UTC) | temp F | wind direction | speed MPH | gust MPH | rain 1hr in | rain 24hr in | rain mn in | humidity % | barometer mb |
| 20260503171649 | 60 | 255 | 13.0 | 17.0 | 0.00 | 0.00 | 0.00 | 42 | 1010.3 |
| 20260503171146 | 60 | 279 | 7.0 | 11.0 | 0.00 | 0.00 | 0.00 | 42 | 1010.2 |
| 20260503170643 | 60 | 254 | 5.0 | 9.0 | 0.00 | 0.00 | 0.00 | 39 | 1010.4 |
| 20260503170140 | 60 | 268 | 13.0 | 17.0 | 0.00 | 0.00 | 0.00 | 40 | 1010.3 |
| 20260503150531 | 57 | 239 | 12.0 | 19.0 | 0.00 | 0.00 | 0.00 | 40 | 1011.2 |
| 20260503130926 | 49 | 260 | 6.0 | 9.0 | 0.00 | 0.00 | 0.00 | 51 | 1011.9 |
| 20260503130424 | 48 | 272 | 6.0 | 9.0 | 0.00 | 0.00 | 0.00 | 52 | 1012.0 |
| 20260503110829 | 32 | 56 | 0.0 | 1.0 | 0.00 | 0.00 | 0.00 | 80 | 1012.4 |
| 20260503110326 | 32 | 57 | 0.0 | 1.0 | 0.00 | 0.00 | 0.00 | 80 | 1012.4 |
| 20260503100252 | 31 | 56 | 0.0 | 0.0 | 0.00 | 0.00 | 0.00 | 80 | 1013.1 |
| 20260503090211 | 31 | 48 | 0.0 | 0.0 | 0.00 | 0.00 | 0.00 | 81 | 1013.4 |
| 20260503081138 | 35 | 42 | 1.0 | 2.0 | 0.00 | 0.00 | 0.00 | 68 | 1013.5 |
| 20260503080634 | 36 | 60 | 0.0 | 0.0 | 0.00 | 0.00 | 0.00 | 68 | 1013.5 |
| 20260503080132 | 36 | 12 | 2.0 | 3.0 | 0.00 | 0.00 | 0.00 | 67 | 1013.7 |
| 20260503072609 | 37 | 107 | 2.0 | 3.0 | 0.00 | 0.00 | 0.00 | 65 | 1013.6 |
| 20260503072106 | 37 | 265 | 4.0 | 4.0 | 0.00 | 0.00 | 0.00 | 66 | 1013.7 |
| 20260503071602 | 37 | 356 | 2.0 | 4.0 | 0.00 | 0.00 | 0.00 | 66 | 1013.6 |
| 20260503071059 | 37 | 19 | 1.0 | 3.0 | 0.00 | 0.00 | 0.00 | 67 | 1013.6 |
| 20260503070555 | 37 | 355 | 2.0 | 3.0 | 0.00 | 0.00 | 0.00 | 67 | 1013.7 |
| 20260503055014 | 38 | 242 | 2.0 | 6.0 | 0.00 | 0.00 | 0.00 | 64 | 1014.1 |
| 20260503054510 | 38 | 243 | 3.0 | 4.0 | 0.00 | 0.00 | 0.00 | 65 | 1014.0 |
| 20260503054008 | 38 | 334 | 1.0 | 3.0 | 0.00 | 0.00 | 0.00 | 65 | 1014.1 |
| 20260503053506 | 37 | 348 | 1.0 | 2.0 | 0.00 | 0.00 | 0.00 | 66 | 1013.9 |
| 20260503053003 | 37 | 202 | 3.0 | 4.0 | 0.00 | 0.00 | 0.00 | 67 | 1014.1 |
| 20260503052500 | 37 | 40 | 0.0 | 2.0 | 0.00 | 0.00 | 0.00 | 67 | 1014.1 |
| 20260503051956 | 37 | 81 | 1.0 | 1.0 | 0.00 | 0.00 | 0.00 | 67 | 1014.0 |
| 20260503051452 | 37 | 46 | 0.0 | 0.0 | 0.00 | 0.00 | 0.00 | 67 | 1014.0 |
| 20260503050949 | 36 | 66 | 0.0 | 0.0 | 0.00 | 0.00 | 0.00 | 68 | 1014.1 |
| 20260503050445 | 36 | 47 | 0.0 | 0.0 | 0.00 | 0.00 | 0.00 | 69 | 1014.1 |
| 20260503045943 | 36 | 48 | 0.0 | 0.0 | 0.00 | 0.00 | 0.00 | 68 | 1014.1 |
| 20260503045440 | 36 | 51 | 0.0 | 0.0 | 0.00 | 0.00 | 0.00 | 68 | 1014.1 |
| 20260503044937 | 36 | 51 | 0.0 | 0.0 | 0.00 | 0.00 | 0.00 | 67 | 1014.4 |
| 20260503044433 | 36 | 52 | 0.0 | 0.0 | 0.00 | 0.00 | 0.00 | 68 | 1014.4 |
| 20260503043931 | 35 | 53 | 0.0 | 0.0 | 0.00 | 0.00 | 0.00 | 69 | 1014.4 |
| 20260503043427 | 35 | 52 | 0.0 | 0.0 | 0.00 | 0.00 | 0.00 | 68 | 1014.4 |
| 20260503042924 | 35 | 52 | 0.0 | 0.0 | 0.00 | 0.00 | 0.00 | 69 | 1014.4 |
| 20260503042421 | 35 | 52 | 0.0 | 0.0 | 0.00 | 0.00 | 0.00 | 68 | 1014.3 |
| 20260503041917 | 35 | 52 | 0.0 | 0.0 | 0.00 | 0.00 | 0.00 | 68 | 1014.4 |
| 20260503041414 | 35 | 52 | 0.0 | 0.0 | 0.00 | 0.00 | 0.00 | 68 | 1014.6 |
| 20260503040911 | 35 | 53 | 0.0 | 0.0 | 0.00 | 0.00 | 0.00 | 68 | 1014.5 |
| 20260503040409 | 36 | 53 | 0.0 | 0.0 | 0.00 | 0.00 | 0.00 | 67 | 1014.5 |
| 20260503035906 | 36 | 53 | 0.0 | 0.0 | 0.00 | 0.00 | 0.00 | 67 | 1014.6 |
| 20260503035403 | 35 | 53 | 0.0 | 0.0 | 0.00 | 0.00 | 0.00 | 67 | 1014.6 |
| 20260503034900 | 35 | 52 | 0.0 | 0.0 | 0.00 | 0.00 | 0.00 | 68 | 1014.5 |
| 20260503034357 | 35 | 53 | 0.0 | 0.0 | 0.00 | 0.00 | 0.00 | 68 | 1014.7 |
| 20260503033854 | 35 | 53 | 0.0 | 0.0 | 0.00 | 0.00 | 0.00 | 68 | 1014.6 |
| 20260503033352 | 35 | 53 | 0.0 | 0.0 | 0.00 | 0.00 | 0.00 | 68 | 1014.7 |
| 20260503032850 | 35 | 53 | 0.0 | 0.0 | 0.00 | 0.00 | 0.00 | 68 | 1014.8 |
| 20260503032348 | 34 | 53 | 0.0 | 0.0 | 0.00 | 0.00 | 0.00 | 69 | 1014.7 |
| 20260503031845 | 34 | 53 | 0.0 | 0.0 | 0.00 | 0.00 | 0.00 | 69 | 1014.9 |
| 20260503031343 | 34 | 53 | 0.0 | 0.0 | 0.00 | 0.00 | 0.00 | 69 | 1014.8 |
| 20260503030839 | 34 | 53 | 0.0 | 0.0 | 0.00 | 0.00 | 0.00 | 70 | 1014.8 |
| 20260503030336 | 34 | 53 | 0.0 | 0.0 | 0.00 | 0.00 | 0.00 | 72 | 1014.6 |
| 20260503025832 | 34 | 53 | 0.0 | 0.0 | 0.00 | 0.00 | 0.00 | 72 | 1014.8 |
| 20260503025330 | 34 | 53 | 0.0 | 0.0 | 0.00 | 0.00 | 0.00 | 73 | 1015.0 |
| 20260503024827 | 34 | 53 | 0.0 | 0.0 | 0.00 | 0.00 | 0.00 | 73 | 1015.0 |
| 20260503024323 | 34 | 53 | 0.0 | 0.0 | 0.00 | 0.00 | 0.00 | 73 | 1014.9 |
| 20260503023820 | 34 | 53 | 0.0 | 0.0 | 0.00 | 0.00 | 0.00 | 72 | 1014.9 |
| 20260503023318 | 34 | 53 | 0.0 | 0.0 | 0.00 | 0.00 | 0.00 | 71 | 1015.1 |
| 20260503022814 | 35 | 53 | 0.0 | 0.0 | 0.00 | 0.00 | 0.00 | 70 | 1015.1 |
| 20260503022314 | 35 | 53 | 0.0 | 0.0 | 0.00 | 0.00 | 0.00 | 69 | 1015.1 |
| 20260503021811 | 35 | 53 | 0.0 | 0.0 | 0.00 | 0.00 | 0.00 | 69 | 1015.2 |
| 20260503021307 | 35 | 53 | 0.0 | 0.0 | 0.00 | 0.00 | 0.00 | 70 | 1015.0 |
| 20260503020805 | 34 | 53 | 0.0 | 0.0 | 0.00 | 0.00 | 0.00 | 72 | 1015.0 |
| 20260503020303 | 34 | 53 | 0.0 | 0.0 | 0.00 | 0.00 | 0.00 | 73 | 1015.1 |
| 20260503015758 | 35 | 53 | 0.0 | 0.0 | 0.00 | 0.00 | 0.00 | 72 | 1015.1 |
| 20260503015256 | 35 | 53 | 0.0 | 0.0 | 0.00 | 0.00 | 0.00 | 70 | 1015.2 |
| 20260503014751 | 35 | 53 | 0.0 | 0.0 | 0.00 | 0.00 | 0.00 | 72 | 1015.2 |
| 20260503014249 | 35 | 53 | 0.0 | 0.0 | 0.00 | 0.00 | 0.00 | 72 | 1015.1 |
| 20260503013746 | 35 | 53 | 0.0 | 0.0 | 0.00 | 0.00 | 0.00 | 72 | 1015.2 |
| 20260503013244 | 36 | 53 | 0.0 | 0.0 | 0.00 | 0.00 | 0.00 | 70 | 1014.9 |
| 20260503012741 | 36 | 53 | 0.0 | 0.0 | 0.00 | 0.00 | 0.00 | 69 | 1015.1 |
| 20260503012238 | 36 | 53 | 0.0 | 0.0 | 0.00 | 0.00 | 0.00 | 68 | 1015.0 |
| 20260503011735 | 37 | 53 | 0.0 | 0.0 | 0.00 | 0.00 | 0.00 | 65 | 1015.0 |
| 20260503011232 | 37 | 53 | 0.0 | 0.0 | 0.00 | 0.00 | 0.00 | 62 | 1014.9 |
| 20260503010728 | 38 | 53 | 0.0 | 0.0 | 0.00 | 0.00 | 0.00 | 61 | 1015.0 |
| 20260503010225 | 38 | 53 | 0.0 | 0.0 | 0.00 | 0.00 | 0.00 | 61 | 1014.9 |
| 20260503005722 | 39 | 53 | 0.0 | 0.0 | 0.00 | 0.00 | 0.00 | 60 | 1015.1 |
| 20260503005220 | 40 | 53 | 0.0 | 0.0 | 0.00 | 0.00 | 0.00 | 58 | 1014.9 |
| 20260503004715 | 41 | 53 | 0.0 | 0.0 | 0.00 | 0.00 | 0.00 | 56 | 1014.9 |
| 20260503004214 | 41 | 53 | 0.0 | 0.0 | 0.00 | 0.00 | 0.00 | 55 | 1014.8 |
| 20260503003711 | 42 | 53 | 0.0 | 0.0 | 0.00 | 0.00 | 0.00 | 52 | 1014.8 |
| 20260503003208 | 43 | 53 | 0.0 | 0.0 | 0.00 | 0.00 | 0.00 | 50 | 1015.0 |
| 20260503002704 | 44 | 53 | 0.0 | 0.0 | 0.00 | 0.00 | 0.00 | 47 | 1014.7 |
| 20260503002201 | 45 | 53 | 0.0 | 0.0 | 0.00 | 0.00 | 0.00 | 45 | 1014.8 |
| 20260503001657 | 46 | 39 | 0.0 | 1.0 | 0.00 | 0.00 | 0.00 | 44 | 1014.7 |
| 20260503001154 | 46 | 319 | 2.0 | 2.0 | 0.00 | 0.00 | 0.00 | 41 | 1014.6 |
| 20260503000652 | 46 | 20 | 1.0 | 1.0 | 0.00 | 0.00 | 0.00 | 41 | 1014.9 |
| 20260503000149 | 47 | 338 | 1.0 | 3.0 | 0.00 | 0.00 | 0.00 | 41 | 1014.9 |
| 20260502235646 | 47 | 2 | 2.0 | 3.0 | 0.00 | 0.00 | 0.00 | 44 | 1015.0 |
| 20260502235144 | 47 | 270 | 3.0 | 6.0 | 0.00 | 0.00 | 0.00 | 42 | 1014.9 |
| 20260502234639 | 47 | 269 | 5.0 | 7.0 | 0.00 | 0.00 | 0.00 | 40 | 1014.9 |
| 20260502234137 | 47 | 278 | 4.0 | 4.0 | 0.00 | 0.00 | 0.00 | 41 | 1015.0 |
| 20260502233633 | 47 | 271 | 6.0 | 9.0 | 0.00 | 0.00 | 0.00 | 41 | 1014.8 |
| 20260502233130 | 48 | 49 | 1.0 | 2.0 | 0.00 | 0.00 | 0.00 | 42 | 1015.1 |
| 20260502232625 | 49 | 307 | 4.0 | 6.0 | 0.00 | 0.00 | 0.00 | 39 | 1015.0 |
| 20260502232123 | 49 | 67 | 0.0 | 1.0 | 0.00 | 0.00 | 0.00 | 40 | 1015.0 |
| 20260502231620 | 49 | 33 | 1.0 | 2.0 | 0.00 | 0.00 | 0.00 | 39 | 1015.0 |
| 20260502231118 | 48 | 359 | 2.0 | 6.0 | 0.00 | 0.00 | 0.00 | 41 | 1014.9 |
| 20260502230616 | 49 | 325 | 2.0 | 4.0 | 0.00 | 0.00 | 0.00 | 39 | 1015.1 |
| 20260502230114 | 49 | 30 | 4.0 | 4.0 | 0.00 | 0.00 | 0.00 | 41 | 1014.9 |
| 20260502225609 | 49 | 310 | 2.0 | 3.0 | 0.00 | 0.00 | 0.00 | 41 | 1015.0 |
| 20260502225107 | 48 | 294 | 4.0 | 6.0 | 0.00 | 0.00 | 0.00 | 42 | 1015.0 |
| 20260502224602 | 47 | 30 | 2.0 | 4.0 | 0.00 | 0.00 | 0.00 | 43 | 1015.0 |
| 20260502224100 | 46 | 268 | 6.0 | 9.0 | 0.00 | 0.00 | 0.00 | 45 | 1015.2 |
| 20260502223557 | 47 | 286 | 4.0 | 7.0 | 0.00 | 0.00 | 0.00 | 42 | 1015.1 |
| 20260502223056 | 46 | 326 | 5.0 | 7.0 | 0.00 | 0.00 | 0.00 | 42 | 1015.1 |
| 20260502222553 | 46 | 352 | 3.0 | 9.0 | 0.00 | 0.00 | 0.00 | 42 | 1015.2 |
| 20260502222049 | 47 | 245 | 7.0 | 8.0 | 0.00 | 0.00 | 0.00 | 42 | 1015.2 |
| 20260502221544 | 48 | 58 | 1.0 | 1.0 | 0.00 | 0.00 | 0.00 | 42 | 1015.2 |
| 20260502221042 | 47 | 16 | 1.0 | 2.0 | 0.00 | 0.00 | 0.00 | 40 | 1015.3 |
| 20260502220537 | 47 | 304 | 4.0 | 7.0 | 0.00 | 0.00 | 0.00 | 41 | 1015.4 |
| 20260502220035 | 47 | 357 | 3.0 | 7.0 | 0.00 | 0.00 | 0.00 | 44 | 1015.4 |
| 20260502215532 | 47 | 277 | 3.0 | 3.0 | 0.00 | 0.00 | 0.00 | 43 | 1015.5 |
| 20260502215029 | 47 | 14 | 4.0 | 9.0 | 0.00 | 0.00 | 0.00 | 43 | 1015.4 |
| 20260502214525 | 46 | 279 | 8.0 | 13.0 | 0.00 | 0.00 | 0.00 | 43 | 1015.5 |
| 20260502214023 | 46 | 305 | 1.0 | 4.0 | 0.00 | 0.00 | 0.00 | 44 | 1015.5 |
| 20260502213519 | 46 | 282 | 5.0 | 8.0 | 0.00 | 0.00 | 0.00 | 45 | 1015.5 |
| 20260502213018 | 46 | 105 | 1.0 | 9.0 | 0.00 | 0.00 | 0.00 | 44 | 1015.3 |
| 20260502212516 | 46 | 276 | 6.0 | 7.0 | 0.00 | 0.00 | 0.00 | 46 | 1015.4 |
| 20260502212014 | 46 | 270 | 7.0 | 8.0 | 0.00 | 0.00 | 0.00 | 45 | 1015.3 |
| 20260502211509 | 46 | 65 | 2.0 | 6.0 | 0.00 | 0.00 | 0.00 | 47 | 1015.3 |
| 20260502211007 | 46 | 20 | 2.0 | 6.0 | 0.00 | 0.00 | 0.00 | 47 | 1015.3 |
| 20260502210503 | 46 | 278 | 5.0 | 8.0 | 0.00 | 0.00 | 0.00 | 47 | 1015.3 |
| 20260502210000 | 46 | 41 | 1.0 | 3.0 | 0.00 | 0.00 | 0.00 | 44 | 1015.4 |
| 20260502205456 | 47 | 268 | 6.0 | 8.0 | 0.00 | 0.00 | 0.00 | 46 | 1015.4 |
| 20260502204954 | 47 | 34 | 1.0 | 2.0 | 0.00 | 0.00 | 0.00 | 45 | 1015.5 |
| 20260502204450 | 47 | 46 | 0.0 | 2.0 | 0.00 | 0.00 | 0.00 | 48 | 1015.4 |
| 20260502203948 | 46 | 282 | 4.0 | 6.0 | 0.00 | 0.00 | 0.00 | 47 | 1015.4 |
| 20260502203445 | 46 | 222 | 5.0 | 8.0 | 0.00 | 0.00 | 0.00 | 45 | 1015.4 |
| 20260502202942 | 46 | 274 | 8.0 | 9.0 | 0.00 | 0.00 | 0.00 | 45 | 1015.6 |
| 20260502202438 | 46 | 280 | 6.0 | 8.0 | 0.00 | 0.00 | 0.00 | 45 | 1015.4 |
| 20260502201937 | 46 | 249 | 5.0 | 6.0 | 0.00 | 0.00 | 0.00 | 47 | 1015.6 |
| 20260502201432 | 46 | 278 | 6.0 | 9.0 | 0.00 | 0.00 | 0.00 | 45 | 1015.6 |
| 20260502200929 | 46 | 244 | 2.0 | 9.0 | 0.00 | 0.00 | 0.00 | 50 | 1015.7 |
| 20260502200425 | 46 | 38 | 2.0 | 3.0 | 0.00 | 0.00 | 0.00 | 49 | 1015.8 |
| 20260502195923 | 45 | 47 | 2.0 | 3.0 | 0.00 | 0.00 | 0.00 | 47 | 1015.8 |
| 20260502195420 | 45 | 275 | 4.0 | 8.0 | 0.00 | 0.00 | 0.00 | 44 | 1015.9 |
| 20260502194916 | 46 | 257 | 9.0 | 10.0 | 0.00 | 0.00 | 0.00 | 46 | 1015.9 |
| 20260502194413 | 46 | 275 | 5.0 | 7.0 | 0.00 | 0.00 | 0.00 | 50 | 1016.1 |
| 20260502193909 | 45 | 270 | 6.0 | 9.0 | 0.00 | 0.00 | 0.00 | 47 | 1016.2 |
| 20260502193406 | 45 | 244 | 5.0 | 7.0 | 0.00 | 0.00 | 0.00 | 44 | 1016.1 |
| 20260502192901 | 46 | 265 | 9.0 | 10.0 | 0.00 | 0.00 | 0.00 | 44 | 1016.2 |
| 20260502192359 | 45 | 334 | 2.0 | 4.0 | 0.00 | 0.00 | 0.00 | 46 | 1016.1 |
| 20260502191856 | 45 | 279 | 4.0 | 6.0 | 0.00 | 0.00 | 0.00 | 45 | 1016.3 |
| 20260502191354 | 46 | 260 | 7.0 | 10.0 | 0.00 | 0.00 | 0.00 | 44 | 1016.2 |
| 20260502190851 | 47 | 324 | 4.0 | 7.0 | 0.00 | 0.00 | 0.00 | 44 | 1016.3 |
| 20260502190348 | 47 | 121 | 1.0 | 2.0 | 0.00 | 0.00 | 0.00 | 44 | 1016.3 |
| 20260502185844 | 46 | 312 | 4.0 | 7.0 | 0.00 | 0.00 | 0.00 | 48 | 1016.3 |
| 20260502185339 | 46 | 315 | 6.0 | 8.0 | 0.00 | 0.00 | 0.00 | 48 | 1016.5 |
| 20260502184837 | 45 | 240 | 7.0 | 11.0 | 0.00 | 0.00 | 0.00 | 47 | 1016.4 |
| 20260502184332 | 47 | 264 | 6.0 | 11.0 | 0.00 | 0.00 | 0.00 | 43 | 1016.2 |
| 20260502183829 | 46 | 338 | 3.0 | 3.0 | 0.00 | 0.00 | 0.00 | 48 | 1016.3 |
| 20260502183325 | 46 | 264 | 4.0 | 6.0 | 0.00 | 0.00 | 0.00 | 45 | 1016.3 |
| 20260502182820 | 47 | 47 | 1.0 | 8.0 | 0.00 | 0.00 | 0.00 | 44 | 1016.3 |
| 20260502182316 | 46 | 33 | 2.0 | 4.0 | 0.00 | 0.00 | 0.00 | 48 | 1016.5 |
| 20260502181813 | 46 | 13 | 3.0 | 4.0 | 0.00 | 0.00 | 0.00 | 48 | 1016.5 |
| 20260502181312 | 47 | 229 | 4.0 | 10.0 | 0.00 | 0.00 | 0.00 | 45 | 1016.5 |
| 20260502180809 | 46 | 42 | 2.0 | 6.0 | 0.00 | 0.00 | 0.00 | 51 | 1016.6 |
| 20260502180306 | 46 | 268 | 11.0 | 14.0 | 0.00 | 0.00 | 0.00 | 51 | 1016.5 |